Uitslag Triatlon Bilzen 111 top 3

# Naam Totaal
1 Goetstouwers Stenn 03:19:06 84.99
2 Vekemans Glenn 03:26:17 81.62
3 Denis Sylvain 03:28:37 80.91
4 Pareit Christophe 03:28:59 80.80
5 De Mooij Jaryd 03:29:56 80.52
6 Verlinden Sven 03:30:46 80.26
7 Vander Mast Wouter 03:31:24 80.07
8 Vercalsteren Kenn 03:32:03 79.88
9 Vermeiren Kris 03:32:25 79.77
10 Vos Davy 03:34:11 79.23
11 Spijkerman Erik Jan 03:34:32 79.13
12 Van De Moortele Bruce 03:34:35 79.11
13 Decoene David 03:35:31 78.83
14 Roelens Stijn 03:35:48 78.74
15 Vanderbeke Koen 03:36:22 78.57
16 Moreel Wout 03:36:26 78.55
17 Uyttersprot Dieter 03:36:49 78.44
18 De Rore Geert 03:38:19 77.98
19 Nu?ttgens Ralf 03:39:57 77.49
20 X Team Francis 03:39:57 77.49
21 Lasoen Filip 03:40:52 77.21
22 Taveirne Jeffrey 03:41:11 77.12
23 Deboer Oono 03:42:15 76.79
24 Gelders Dimitri 03:42:52 76.61
25 Vanhove Dave 03:43:32 76.41
26 Remmerie Wouter 03:44:26 76.13
27 Deman Kevin 03:44:39 76.07
28 De Bent Johan 03:44:56 75.98
29 Erkens Patrick 03:45:06 75.93
31 Rombouts Eddy 03:45:47 75.73
32 VAN DE WIELE Tom 03:45:55 75.69
33 Barbier Dries 03:46:02 75.65
34 Christiaans Joost 03:46:12 75.60
35 Denis Romain 03:46:40 75.46
36 De vos Gert 03:47:29 75.21
37 Verbruggen Ronald 03:47:47 75.12
38 De Jonghe Thomas 03:48:26 74.93
39 Vermeulen Maarten 03:48:45 74.83
40 Peters Maarten 03:49:05 74.73
41 Eyckmans Wim 03:49:27 74.62
42 Joosten Nico 03:49:29 74.61
43 De Cuyper Leslie 03:50:23 74.34
44 Van Der Burg Karlijn 03:50:31 78.23
45 Jacobs Lennert 03:50:37 74.27
46 Wils Geert 03:51:04 74.13
47 Baert Jimmy 03:51:16 74.07
48 Ghyselinck Ruben 03:51:23 74.03
49 Verhaegen Mark 03:51:46 73.92
50 Spiessens Thomas 03:51:59 73.85
51 Vanden Eynde Birgen 03:52:00 73.85
52 Poppe Jef 03:52:16 73.77
53 Deckers Bart 03:52:17 73.76
54 Vermeiren Filip 03:52:37 73.66
55 Kings Simon 03:52:40 73.65
56 Gheysens Jan 03:53:06 73.52
57 Bogaerts Stijn 03:53:25 73.42
58 Van Humbeeck Gunther 03:53:51 73.29
59 Chatelus Sebastien 03:53:54 73.27
60 Smeets Peter 03:53:54 73.27
61 Lenaerts Sven 03:54:16 73.16
62 Bogaert Wim 03:54:48 73.00
63 Devos Wim 03:54:48 73.00
64 Roosen David 03:55:01 72.94
65 Deruyck Bram 03:55:55 72.66
66 Kedzia Laurent 03:56:00 72.64
67 Van Den Bergh Bram 03:56:05 72.61
68 Soltani Karim 03:56:14 72.57
69 Scheerder Jeroen 03:56:36 72.46
70 Baeyens Kurt 03:56:48 72.40
71 Moerman Rudy 03:56:51 72.38
72 Outmanns Martin 03:57:19 72.24
73 Peetermans Nicky 03:57:20 72.24
74 Moesker Richard 03:57:21 72.23
75 Verschaeren Tim 03:57:54 72.07
76 Verschaeren Hans 03:57:54 72.07
77 Vanden Daelen Leen 03:57:55 74.35
78 Goethals Frédéric 03:58:13 71.97
79 Cauwelier Wannes 03:59:02 71.72
80 Van Den Berghe Bart 03:59:28 71.59
81 Desmet Koen 03:59:57 71.45
82 Bouwens Steven 04:00:52 71.17
83 Castermans Christophe 04:01:29 70.98
84 Demeestere Jean-pierre 04:02:20 70.73
85 Jacobs Guy 04:02:34 70.66
86 Cool Gregory 04:02:47 70.59
87 De Mets Frederik 04:03:26 70.39
88 Christiaens Wim 04:03:39 70.33
89 Di Febbo Marino 04:03:52 70.26
90 Vosswinkel Frank 04:04:19 70.13
91 Deman Peter 04:04:21 70.12
92 Braem Ben 04:04:22 70.11
93 Syryn Marc 04:04:53 69.96
94 Van Onna Ton 04:05:29 69.77
95 Vandepoele Bert 04:05:34 69.75
96 Servais Vincent 04:05:36 69.74
97 Verstraeten Ivan 04:05:45 69.69
98 Lefèvre Stefanie 04:06:06 71.39
99 Malmendier Roland 04:06:28 69.48
100 Marinus Wouter 04:06:37 69.43
101 Bruyndonx Willem 04:06:47 69.38
102 Clinckspoor Stijn 04:07:05 69.29
103 Esch Joris 04:07:11 69.26
104 Bekaert Ruben 04:07:22 69.20
105 Van Looveren Koen 04:07:45 69.09
106 Kruijer Hessel 04:08:01 69.01
107 Mievis Stéphane 04:08:33 68.85
108 De Keulenaer Hans 04:08:49 68.77
109 Aelvoet Stijn 04:09:02 68.70
110 Vanlangenakker Stéphane 04:09:17 68.63
111 De Lombaert Luc 04:09:45 68.48
112 Rasing Peter 04:10:45 68.18
113 Graulus Jeremy 04:10:57 68.12
114 De Donder Rob 04:11:03 68.09
115 Roman Dieter 04:11:05 68.08
116 De Boeck Gina 04:11:44 69.35
117 Bruggeman Pieter 04:12:14 67.73
118 Baumer Silke 04:13:06 68.86
119 Vrints Joris 04:13:09 67.46
120 Feringa Lena 04:13:23 68.75
121 De Vries Dennis 04:13:53 67.24
122 Galle Alexander 04:14:15 67.12
123 PIROSON Christian 04:15:02 66.89
124 Bruyneel Steven 04:15:38 66.71
125 LALLEMAND Pascal 04:15:39 66.70
126 De Vriese Marc 04:15:52 66.64
127 Giacomelli Fabrice 04:16:25 66.47
128 Maes Stefaan 04:17:31 66.14
129 Wilmet Benoit 04:17:41 66.09
130 Van Linden Ju?rgen 04:17:47 66.06
131 Tempelaere Tineke 04:17:49 67.15
132 Declerck Jeroen 04:18:05 65.97
133 Franssen Whoopy 04:18:06 67.05
134 De Jaeger Hendrik 04:18:32 65.83
135 Vonneche Didier 04:18:36 65.81
136 Goemaere Gunther 04:18:36 65.81
137 Vandeneede Diederik 04:19:05 65.66
138 Wysgeer Steve 04:19:30 65.54
139 Van Parijs Peter 04:19:41 65.48
140 De Clercq Pieter 04:19:47 65.45
141 Houben Guy 04:20:16 65.31
142 Herreman Karel 04:20:17 65.30
143 SLOOVE Karin 04:20:30 66.18
144 Van De Steen Frank 04:21:03 65.07
145 Troost Yvonne 04:22:01 65.63
146 Honshoven Patrick 04:23:23 64.36
147 Joos Annick 04:24:14 64.83
148 DEEN Norbert 04:24:34 64.01
149 Van Houten Cees 04:24:43 63.96
150 Mommerency Lislot 04:25:07 64.51
151 Cassiers Nikki 04:25:53 63.61
152 Teirbrood Eddy 04:25:57 63.59
153 Struyf Stefan 04:26:09 63.53
154 TACK Laurence 04:26:28 64.02
155 Looijer Joany 04:27:58 63.47
156 Aerts Erik 04:29:08 62.63
157 Severs Erik 04:29:08 62.63
158 Van Der Veken Pierre 04:29:21 62.56
159 Kiebooms Veerle 04:29:35 62.89
160 rasschaert walter 04:29:46 62.44
161 Jolet Françoise 04:30:15 62.65
162 Tanghe Heleen 04:30:35 62.53
163 ENKELS Maarten 04:31:36 61.88
164 Paradis Jordy 04:32:58 61.47
165 De Beul Bart 04:33:09 61.41
166 Vermoesen Peter 04:33:22 61.35
167 Stroomer Marleen 04:34:23 61.15
168 Viaene Steven 04:34:35 60.98
169 Vandepitte Marnix 04:34:55 60.88
170 LEA Stephen 04:35:03 60.84
171 Debout Jean-luc 04:35:08 60.81
172 GUBBELS Jeroen 04:35:23 60.74
173 Karamat Ali Jeroen 04:35:39 60.66
174 Eeckhaut Sebastien 04:35:41 60.65
175 Peerlinck Frank 04:36:13 60.49
176 Hendrikse Jeffrey 04:36:27 60.42
177 Steenhout Robrecht 04:36:43 60.34
178 Wouters Wim 04:37:26 60.12
179 Verstrepen Peter 04:37:53 59.98
180 Van Tendeloo Lutgard 04:38:29 59.67
181 Gielen Monique 04:39:51 59.17
182 Vandecaveye Katia 04:41:01 58.75
183 Vranckx Philippe 04:41:03 59.03
184 Cassiers Michel 04:41:31 58.89
185 Vluggen Roger 04:41:45 58.81
186 Vandenborre Bruno 04:41:50 58.79
187 ADAN Mathieu 04:42:10 58.69
188 KRIER Michel 04:42:21 58.63
189 Lindemans Lukas 04:42:48 58.50
190 Bossuyt Mieke 04:43:18 57.92
191 Dessers Levi 04:43:27 58.30
192 Vanhoucke Jeffrey 04:44:31 57.98
193 Galle Ward 04:45:28 57.69
194 Riez Christophe 04:46:06 57.50
195 Dewez Germain 04:46:49 57.28
196 De Wolf Jan 04:47:59 56.93
197 Vandycke Els 04:48:07 56.18
198 Stevens Ilse 04:48:25 56.07
199 Van Den Bremt Karen 04:48:26 56.07
200 Decoux Fabian 04:50:04 56.30
201 Coulier Nel 04:50:58 55.15
202 Devos Bart 04:51:40 55.82
203 Ceulemans Geert 04:51:57 55.73
204 Mariën Walter 04:52:44 55.50
205 Decock Willem 04:54:57 54.83
206 Patrick Verstraete 04:57:01 54.20
207 Werbrouck Nancy 04:58:07 52.56
208 Jacobs Ilse 04:58:22 52.47
209 Jaspers Ina 04:58:49 52.31
210 Costalugna Serge 04:58:50 53.65
211 Hasaers Peter 05:02:07 52.66
212 De Smedt Tim 05:02:15 52.62
213 Vandevenne Koen 05:04:46 51.86
214 Nuez Francisco 05:11:51 49.72
215 Boute Edward 05:12:16 49.59
216 Van Beeck Lydia 05:13:42 46.42
217 De Bisschop Jan 05:15:53 48.00

Reacties

  • 4 jaar geleden

    Ter overname aangeboden (gereduceerd tarief): deelnamebewijs voor Bilzen 111. Geinteresseerden kunnen per mail contact opnemen.